TimeCST,TemperatureF,Dew PointF,Humidity,Sea Level PressureIn,VisibilityMPH,Wind Direction,Wind SpeedMPH,Gust SpeedMPH,PrecipitationIn,Events,Conditions,WindDirDegrees,DateUTC
12:15 AM,64.4,46.4,52,29.65,10.0,South,20.7,25.3,N/A,,Clear,190,2012-11-10 06:15:00
12:35 AM,64.4,44.6,49,29.65,10.0,South,21.9,26.5,N/A,,Clear,190,2012-11-10 06:35:00
12:55 AM,64.4,42.8,45,29.66,10.0,South,20.7,-,N/A,,Clear,190,2012-11-10 06:55:00
1:15 AM,64.4,41.0,42,29.66,10.0,South,19.6,24.2,N/A,,Clear,190,2012-11-10 07:15:00
1:35 AM,64.4,39.2,40,29.65,10.0,SSW,20.7,27.6,N/A,,Clear,200,2012-11-10 07:35:00
1:55 AM,64.4,42.8,45,29.65,10.0,South,21.9,28.8,N/A,,Clear,190,2012-11-10 07:55:00
2:15 AM,62.6,42.8,48,29.65,10.0,South,17.3,23.0,N/A,,Clear,190,2012-11-10 08:15:00
2:35 AM,62.6,42.8,48,29.66,10.0,SSW,16.1,-,N/A,,Clear,200,2012-11-10 08:35:00
2:55 AM,62.6,44.6,52,29.65,10.0,South,23.0,27.6,N/A,,Clear,190,2012-11-10 08:55:00
3:15 AM,62.6,42.8,48,29.65,10.0,South,17.3,-,N/A,,Clear,190,2012-11-10 09:15:00
3:35 AM,62.6,42.8,48,29.66,10.0,South,19.6,-,N/A,,Clear,190,2012-11-10 09:35:00
3:55 AM,62.6,42.8,48,29.66,10.0,SSW,16.1,-,N/A,,Clear,200,2012-11-10 09:55:00
4:15 AM,64.4,42.8,45,29.65,10.0,SSW,17.3,-,N/A,,Clear,210,2012-11-10 10:15:00
4:35 AM,62.6,41.0,45,29.66,10.0,SSW,19.6,26.5,N/A,,Clear,200,2012-11-10 10:35:00
4:55 AM,62.6,41.0,45,29.67,10.0,SSW,17.3,-,N/A,,Clear,200,2012-11-10 10:55:00
5:15 AM,60.8,41.0,48,29.67,10.0,SSW,15.0,-,N/A,,Clear,200,2012-11-10 11:15:00
5:35 AM,59.0,41.0,51,29.66,10.0,South,13.8,-,N/A,,Clear,190,2012-11-10 11:35:00
5:55 AM,60.8,42.8,52,29.66,10.0,South,15.0,-,N/A,,Clear,190,2012-11-10 11:55:00
6:35 AM,59.0,44.6,59,29.67,10.0,South,18.4,23.0,N/A,,Clear,180,2012-11-10 12:35:00
6:55 AM,60.8,46.4,59,29.67,10.0,South,19.6,-,N/A,,Clear,180,2012-11-10 12:55:00
7:15 AM,60.8,46.4,59,29.66,10.0,South,16.1,24.2,N/A,,Clear,180,2012-11-10 13:15:00
7:35 AM,59.0,48.2,67,29.66,10.0,South,16.1,-,N/A,,Clear,180,2012-11-10 13:35:00
7:55 AM,60.8,50.0,68,29.67,10.0,South,17.3,-,N/A,,Clear,180,2012-11-10 13:55:00
8:15 AM,60.8,51.8,72,29.66,10.0,South,18.4,24.2,N/A,,Clear,180,2012-11-10 14:15:00
8:35 AM,62.6,51.8,68,29.66,10.0,South,19.6,27.6,N/A,,Clear,180,2012-11-10 14:35:00
8:55 AM,64.4,53.6,68,29.65,10.0,South,27.6,34.5,N/A,,Clear,180,2012-11-10 14:55:00
9:15 AM,68.0,53.6,60,29.64,10.0,South,28.8,36.8,N/A,,Clear,190,2012-11-10 15:15:00
9:35 AM,69.8,53.6,56,29.64,10.0,South,31.1,40.3,N/A,,Clear,190,2012-11-10 15:35:00
9:55 AM,69.8,53.6,56,29.63,10.0,South,31.1,36.8,N/A,,Clear,190,2012-11-10 15:55:00
10:15 AM,69.8,53.6,56,29.63,10.0,South,32.2,39.1,N/A,,Clear,190,2012-11-10 16:15:00
10:35 AM,71.6,53.6,53,29.63,10.0,South,35.7,41.4,N/A,,Clear,190,2012-11-10 16:35:00
10:55 AM,73.4,53.6,50,29.62,10.0,South,29.9,40.3,N/A,,Clear,190,2012-11-10 16:55:00
11:15 AM,73.4,53.6,50,29.61,10.0,South,28.8,42.6,N/A,,Clear,190,2012-11-10 17:15:00
11:35 AM,73.4,53.6,50,29.60,10.0,South,32.2,46.0,N/A,,Clear,190,2012-11-10 17:35:00
11:55 AM,75.2,51.8,44,29.58,10.0,South,35.7,41.4,N/A,,Clear,180,2012-11-10 17:55:00
12:15 PM,75.2,51.8,44,29.58,10.0,South,31.1,43.7,N/A,,Clear,190,2012-11-10 18:15:00
12:35 PM,77.0,51.8,41,29.56,10.0,South,32.2,40.3,N/A,,Clear,180,2012-11-10 18:35:00
12:55 PM,77.0,51.8,41,29.55,10.0,South,34.5,42.6,N/A,,Clear,180,2012-11-10 18:55:00
1:15 PM,77.0,51.8,41,29.54,10.0,South,32.2,41.4,N/A,,Clear,180,2012-11-10 19:15:00
1:35 PM,77.0,51.8,41,29.53,10.0,South,36.8,44.9,N/A,,Clear,170,2012-11-10 19:35:00
1:55 PM,78.8,53.6,42,29.53,10.0,South,36.8,44.9,N/A,,Clear,180,2012-11-10 19:55:00
2:15 PM,78.8,53.6,42,29.53,10.0,South,28.8,41.4,N/A,,Clear,180,2012-11-10 20:15:00
2:35 PM,77.0,53.6,44,29.51,10.0,South,33.4,42.6,N/A,,Clear,180,2012-11-10 20:35:00
2:55 PM,77.0,53.6,44,29.51,10.0,South,35.7,43.7,N/A,,Clear,170,2012-11-10 20:55:00
3:15 PM,75.2,53.6,47,29.51,10.0,South,31.1,42.6,N/A,,Clear,170,2012-11-10 21:15:00
3:35 PM,75.2,53.6,47,29.50,10.0,South,36.8,43.7,N/A,,Clear,180,2012-11-10 21:35:00
3:55 PM,75.2,53.6,47,29.50,10.0,South,36.8,43.7,N/A,,Clear,170,2012-11-10 21:55:00
4:15 PM,73.4,53.6,50,29.51,10.0,South,31.1,39.1,N/A,,Partly Cloudy,180,2012-11-10 22:15:00
4:35 PM,73.4,55.4,53,29.51,10.0,South,33.4,41.4,N/A,,Partly Cloudy,170,2012-11-10 22:35:00
4:55 PM,73.4,55.4,53,29.51,10.0,South,29.9,38.0,N/A,,Clear,170,2012-11-10 22:55:00
5:15 PM,71.6,55.4,57,29.49,10.0,South,31.1,39.1,N/A,,Clear,170,2012-11-10 23:15:00
5:35 PM,71.6,55.4,57,29.48,10.0,SSE,29.9,38.0,N/A,,Clear,160,2012-11-10 23:35:00
5:55 PM,69.8,55.4,60,29.49,10.0,SSE,26.5,36.8,N/A,Thunderstorm,Partly Cloudy,160,2012-11-10 23:55:00
6:15 PM,62.6,44.6,52,29.55,10.0,West,12.7,27.6,N/A,Thunderstorm,Thunderstorm,260,2012-11-11 00:15:00
6:35 PM,60.8,50.0,68,29.58,9.0,SW,38.0,47.2,0.14,Thunderstorm,Thunderstorm,230,2012-11-11 00:35:00
6:55 PM,55.4,50.0,82,29.57,3.0,SW,35.7,56.4,0.82,Thunderstorm,Thunderstorm,220,2012-11-11 00:55:00
7:15 PM,53.6,48.2,82,29.51,4.0,SSW,34.5,49.5,0.39,Thunderstorm,Thunderstorm,200,2012-11-11 01:15:00
7:35 PM,55.4,53.6,94,29.53,10.0,SSW,11.5,18.4,0.41,Thunderstorm,Thunderstorm,210,2012-11-11 01:35:00
7:55 PM,60.8,53.6,77,29.54,10.0,South,26.5,44.9,0.41,Thunderstorm,Thunderstorm,190,2012-11-11 01:55:00
8:15 PM,57.2,50.0,77,29.55,10.0,South,25.3,-,N/A,,Scattered Clouds,180,2012-11-11 02:15:00
8:35 PM,57.2,50.0,77,29.55,10.0,South,24.2,32.2,N/A,,Scattered Clouds,190,2012-11-11 02:35:00
8:55 PM,57.2,50.0,77,29.55,10.0,SSW,18.4,24.2,N/A,,Partly Cloudy,200,2012-11-11 02:55:00
9:15 PM,57.2,51.8,82,29.60,10.0,SW,11.5,-,N/A,,Clear,220,2012-11-11 03:15:00
9:35 PM,55.4,44.6,67,29.64,10.0,NW,15.0,23.0,N/A,,Clear,320,2012-11-11 03:35:00
10:15 PM,48.2,39.2,71,29.71,10.0,North,11.5,-,N/A,,Partly Cloudy,350,2012-11-11 04:15:00
10:35 PM,46.4,37.4,71,29.72,10.0,NW,12.7,18.4,N/A,,Partly Cloudy,320,2012-11-11 04:35:00
10:55 PM,46.4,37.4,71,29.73,10.0,NNW,11.5,-,N/A,,Mostly Cloudy,340,2012-11-11 04:55:00
11:35 PM,44.6,35.6,71,29.76,10.0,NNW,16.1,24.2,N/A,,Scattered Clouds,330,2012-11-11 05:35:00
11:55 PM,42.8,35.6,76,29.74,10.0,NNW,20.7,26.5,N/A,,Scattered Clouds,330,2012-11-11 05:55:00